Weather History for Dover AFB, DE

Change the Weather History Date:

Thursday, October 6, 2011

  Actual Average Record
Temperature  
Mean Temperature 56 °F -  
Max Temperature 67 °F 73 °F 89 °F (1959)
Min Temperature 45 °F 51 °F 32 °F (1965)
Degree Days  
Heating Degree Days 9    
Growing Degree Days 6 (Base 50)    
Moisture  
Dew Point 43 °F    
Average Humidity 62    
Maximum Humidity 87    
Minimum Humidity 41    
Precipitation  
Precipitation 0.00 in - - ()
Sea Level Pressure  
Sea Level Pressure 30.34 in    
Wind  
Wind Speed 6 mph (North)    
Max Wind Speed 10 mph    
Max Gust Speed -    
Visibility 8 miles    
Events      
Averages and records for this station are not official NWS values.
T = Trace of Precipitation, MM = Missing Value Source: NWS Daily Summary

Daily Weather History Graph

Daily Weather History Graph

Search for Another Location

Airport:

Trip Planner

Search our weather history database for the weather conditions in past years. The results will help you decide how hot, cold, wet, or windy it might be!

Date:

Astronomy

Oct. 06, 2011 Rise Set
Actual Time 7:02 AM EDT 6:37 PM EDT
Civil Twilight 6:35 AM EDT 7:03 PM EDT
Nautical Twilight 6:04 AM EDT 7:34 PM EDT
Astronomical Twilight 5:33 AM EDT 8:05 PM EDT
Moon 3:47 PM EDT (10/6) 1:50 AM EDT (10/6)
Length of Visible Light 12h 28m
Length of Day
11h 34m
Waxing Gibbous, 75% of the Moon is Illuminated
Oct 6
Waxing Gibbous
Oct 11
Full
Oct 19
Last Quarter
Oct 26
New
Nov 2
First Quarter

Hourly Weather History & Observations

Time (EDT) Temp. Windchill Dew Point Humidity Pressure Visibility Wind Dir Wind Speed Gust Speed Precip Events Conditions
12:55 AM 56.7 °F - 44.2 °F 63% 30.27 in 5.0 mi North 10.4 mph - N/A   Haze
1:55 AM 52.7 °F - 44.1 °F 72% 30.29 in 5.0 mi North 9.2 mph - N/A   Haze
2:55 AM 50.0 °F - 43.5 °F 78% 30.30 in 7.0 mi North 8.1 mph - N/A   Clear
3:55 AM 48.6 °F - 43.3 °F 82% 30.32 in 8.0 mi North 8.1 mph - N/A   Clear
4:55 AM 48.6 °F - 43.2 °F 82% 30.32 in 6.0 mi North 6.9 mph - N/A   Haze
5:55 AM 46.8 °F - 41.7 °F 83% 30.33 in 7.0 mi North 6.9 mph - N/A   Clear
6:55 AM 45.5 °F 41.8 °F 41.4 °F 85% 30.35 in 10.0 mi NNW 6.9 mph - N/A   Clear
7:55 AM 47.7 °F - 44.1 °F 87% 30.37 in 10.0 mi NNW 6.9 mph - N/A   Clear
8:55 AM 55.4 °F - 47.5 °F 75% 30.38 in 10.0 mi NNW 5.8 mph - N/A   Clear
9:55 AM 59.7 °F - 43.9 °F 56% 30.40 in 7.0 mi Variable 6.9 mph - N/A   Clear
10:55 AM 62.1 °F - 39.0 °F 43% 30.40 in 9.0 mi ENE 4.6 mph - N/A   Clear
11:55 AM 63.3 °F - 40.3 °F 43% 30.38 in 9.0 mi Calm Calm - N/A   Clear
12:55 PM 64.8 °F - 41.5 °F 43% 30.37 in 10.0 mi Variable 5.8 mph - N/A   Clear
1:55 PM 66.2 °F - 42.1 °F 41% 30.34 in 6.0 mi North 5.8 mph - N/A   Haze
2:55 PM 67.3 °F - 45.0 °F 45% 30.33 in 5.0 mi Variable 3.5 mph - N/A   Haze
3:55 PM 66.9 °F - 42.3 °F 41% 30.32 in 10.0 mi Variable 3.5 mph - N/A   Clear
4:55 PM 66.2 °F - 42.3 °F 42% 30.32 in 10.0 mi West 8.1 mph - N/A   Clear
5:55 PM 63.9 °F - 40.1 °F 42% 30.32 in 10.0 mi West 6.9 mph - N/A   Clear
6:55 PM 62.2 °F - 41.4 °F 46% 30.33 in 10.0 mi Calm Calm - N/A   Clear
7:10 PM 62.6 °F - 41.0 °F 45% 30.33 in 10.0 mi Calm Calm - N/A   Light Drizzle
7:23 PM 60.8 °F - 42.8 °F 52% 30.34 in 10.0 mi SW 4.6 mph - N/A   Clear
7:55 PM 56.7 °F - 47.1 °F 70% 30.34 in 10.0 mi Variable 4.6 mph - 0.00 in   Clear
8:50 PM 57.2 °F - 44.6 °F 63% 30.35 in 7.0 mi Calm Calm - N/A   Clear
8:55 PM 55.6 °F - 44.8 °F 67% 30.35 in 6.0 mi Calm Calm - N/A   Haze
9:08 PM 55.4 °F - 46.4 °F 72% 30.35 in 6.0 mi Calm Calm - N/A   Haze
9:55 PM 53.1 °F - 43.9 °F 71% 30.35 in 6.0 mi Calm Calm - N/A   Haze
10:55 PM 53.6 °F - 44.8 °F 72% 30.36 in 7.0 mi Calm Calm - N/A   Clear
11:55 PM 52.2 °F - 45.0 °F 76% 30.37 in 9.0 mi Calm Calm - N/A   Clear